Location: Carnières
(50.1682°N, 3.3474°E)
Time: 05:32:23
(UTC+00:00)

SL-16 R/B - Pass Details

Date: 14 August 2024
Orbit: 842 x 845 km, 71.0° (Epoch: 16 September)

Event Time Altitude Azimuth Distance (km) Brightness Sun altitude
Exits shadow 23:45:10 51° 247° (WSW) 1,061 2.5 -25.9°
Maximum altitude 23:46:27 66° 302° (WNW) 924 2.4 -25.9°
Drops below altitude 10° 23:52:07 10° 25° (NNE) 2,476 5.5 -25.9°
Sets 23:54:36 0° 29° (NNE) 3,415 6.3 -25.9°
